STARLINK-3889, 52331

Orbit data source: Space-Track

STARLINK-3889, 52331 is a payload satellite owned by SpaceX/Seattle (US) in LEO that was launched on Fri, 29 Apr 2022 UTC via an FALCON 9 launch vehicle from the Air Force Eastern Test Range (AFETR). Payload-class satellites include a variety of spacecraft equipped with specific instruments for various scientific and technological missions. These include communications satellites like Starlink; space stations such as the ISS; scientific satellites like the Hubble; Earth observation satellites from companies like Planet Labs, Umbra, and HawkEye 360; GPS; miniature CubeSats for education and research; and military/defense satellites.

Loading next visibility...
Identifier
52331, 2022-045A
Orbit
LEO
Country
Flag of USUS
Related business
Manufacturer
SpaceX/Seattle
Mission
Operational Commercial Communications
Bus & Motor
STARLINK, Unknown motor
Mass
297 kg wet, ~275 kg dry
Launch date (UTC)
2022-04-29 (4 years ago)
Launch vehicle
FALCON 9
Launch site
Air Force Eastern Test Range (AFETR)
Object type
Payload
Rocket body
Debris
Shape & HBR
Box + 1 Pan, 10.1 m
Radar Cross Section
11.087 m², Large (>1 m²)

Expand to show TLE details & history
Last TLE update: 3 days ago

TLE from 3 days ago
0 STARLINK-3889
1 52331U 22045A   26170.12731853 -.00000945  00000-0 -41261-4 0  9991
2 52331  53.1592 113.6448 0001302  94.3179 265.7962 15.08836197230951
Epoch: 2026-06-19T03:03Z
TLE epoch observation values (Epoch: 2026-06-19T03:03:20.320Z)
Latitude
0.00002°
Longitude
160.44939°
Altitude
540.712 km
Speed
7.593 km/s
True Right ascension
07h 34m 34s
True Declination
0° 00' 00"
Sunlit
Object was in daylight at epoch
Visualization orbit readout
Latitude
Unknown
Longitude
Unknown
Altitude
Unknown
Speed
Unknown
Apparent Right ascension
Unknown
Apparent Declination
Unknown
Sunlit
N/A
Visualization observer readout
Local Sidereal Time
21:49:32
Azimuth
Unknown
Elevation
Unknown
Doppler factor
Unknown
Orbital elements
Apogee altitude
540.91 km
Perigee altitude
539.109 km
Semi-major axis
6,918.146 km
Eccentricity
0.00013
Inclination
53.1592°
RAAN
113.6448°
Arg. of periapsis
94.3179°
True anomaly
265.78132°
Mean anomaly
265.7962°
Eccentric anomaly
265.78876°
Mean motion
3.77189 °/min
Orbital period
95.44 mins
BSTAR
-0.000041261
Loading maneuver chart data...
Computing Atmospheric mass density...

Documentation

Showing up to 5 results
|